This is the latest recevied weather packets stored in our database for station/object HP3ICC-22. If no packets are shown the sender has not sent any weather packets the latest 10 day(s).
| Time | Temp. | Humidity | Pressure | Rain* | Wind** | Luminosity | Snow |
|---|---|---|---|---|---|---|---|
| 1777441185 | 6.67° C | 76% | 1015 hPa | 0 mm | - | - | - |
| 1777441125 | 6.67° C | 76% | 1015 hPa | 0 mm | - | - | - |
| 1777439985 | 7.22° C | 76% | 1015 hPa | 0 mm | - | - | - |
| 1777439924 | 7.22° C | 76% | 1015 hPa | 0 mm | - | - | - |
| 1777438784 | 7.22° C | 70% | 1016 hPa | 0 mm | - | - | - |
| 1777438724 | 7.22° C | 70% | 1016 hPa | 0 mm | - | - | - |
| 1777437583 | 8.33° C | 67% | 1016 hPa | 0 mm | - | - | - |
| 1777437523 | 8.33° C | 67% | 1016 hPa | 0 mm | - | - | - |
| 1777436383 | 7.22° C | 77% | 1015 hPa | 0 mm | - | - | - |
| 1777436323 | 7.22° C | 77% | 1015 hPa | 0 mm | - | - | - |
| 1777435183 | 7.78° C | 77% | 1015 hPa | 0 mm | - | - | - |
| 1777435122 | 7.78° C | 77% | 1015 hPa | 0 mm | - | - | - |
| 1777433982 | 7.78° C | 70% | 1015 hPa | 0 mm | - | - | - |
| 1777433922 | 7.78° C | 70% | 1015 hPa | 0 mm | - | - | - |
| 1777432781 | 8.89° C | 67% | 1013 hPa | 0 mm | - | - | - |
| 1777432721 | 8.89° C | 67% | 1013 hPa | 0 mm | - | - | - |
| 1777431581 | 7.78° C | 74% | 1015 hPa | 0 mm | - | - | - |
| 1777431521 | 7.78° C | 74% | 1015 hPa | 0 mm | - | - | - |
| 1777430380 | 8.33° C | 74% | 1015 hPa | 0 mm | - | - | - |
| 1777430320 | 8.33° C | 74% | 1015 hPa | 0 mm | - | - | - |
| 1777429180 | 7.78° C | 71% | 1013 hPa | 0 mm | - | - | - |
| 1777429120 | 7.78° C | 71% | 1013 hPa | 0 mm | - | - | - |
| 1777427980 | 8.89° C | 69% | 1015 hPa | 0 mm | - | - | - |
| 1777427919 | 8.89° C | 69% | 1015 hPa | 0 mm | - | - | - |
| 1777426779 | 10° C | 66% | 1015 hPa | 0 mm | - | - | - |
* Rain latest hour (hover to see other rain measurements)
** Current wind speed in m/s (hover to see current wind gust speed)